Location: Igri�s
(42.2144°N, 0.4320°W)
Time: 17:22:27
(UTC+00:00)

SL-16 R/B - Pass Details

Date: 13 August 2020
Orbit: 843 x 845 km, 71.0° (Epoch: 19 September)

Event Time Altitude Azimuth Distance (km) Brightness Sun altitude
Rises 20:23:35 0° 344° (NNW) 3,414 6.2 -13.8°
Reaches altitude 10° 20:26:25 10° 356° (N) 2,476 5.2 -14.2°
Maximum altitude 20:31:14 28° 54° (NE) 1,554 3.4 -14.9°
Enters shadow 20:34:04 19° 96° (E) 1,926 3.6 -15.3°
